Tracking 19795 objects as of 20-Jul-2019
HD Live streaming from Space Station
objects crossing your sky now

COSMOS 982

Track COSMOS 982 now!
10-day predictions
COSMOS 982 is classified as:


NORAD ID: 10589
Int'l Code: 1978-005G
Perigee: 1,470.7 km
Apogee: 1,522.1 km
Inclination: 74.0 °
Period: 115.7 minutes
Semi major axis: 7867 km
RCS: 0.7047 m2 (medium)
Launch date: January 10, 1978
Source: Commonwealth of Independent States (former USSR) (CIS)
Launch site: PLESETSK MISSILE AND SPACE COMPLEX (PKMTR)
aabbcc
Your satellite tracking list
Your tracking list is empty




NASA's NSSDC Master Catalog

Two Line Element Set (TLE):
1 10589U 78005G   19200.72678053  .00000004  00000-0  13728-3 0  9991
2 10589  74.0325 304.7817 0032669  55.2290  96.2220 12.44098254885860
Source of the keplerian elements: AFSPC